Jackpot

Texas Poker Multi Jackpot System

Kini Telah hadir Jackpot SUPER ROYAL FLUSH

Kini Telah hadir Jackpot 2000 (khusus table VIP keatas).

Ikutilah global jackpot yang tersedia di system kami, dengan system jackpot terbaru dan pertama di indonesia, anda dapat membeli jackpot dengan harga 100 rupiah saja dan menangkan hadiahnya hingga puluhan juta rupiah.

Jackpot bukanlah suatu keharusan untuk dibeli, namun kami memberikan suatu fitur tambahan untuk member tercinta dari www.pokerbintang.xyz.

Terdapat tiga pilihan harga jackpot yang bisa anda beli yaitu :100,500,1000 dan 2000(khusus table VIP Keatas) rupiah.

Hadiah dari Multi jackpot system www.pokerbintang.xyz

  1. full house x 10 harga jackpot yang anda beli.
      (contoh:anda membeli 1000 maka:1000 X10 = 10.000)
  2. four of kind x 250 harga jackpot yang anda beli
      (contoh:anda membeli 1000 maka:1000 X250 = 250.000)
  3. Straight flush x 1200
      (contoh:anda membeli 1000 maka:1000 X1200 = 1.200.000)
  4. Royal flush x 10000 harga jackpot yang anda beli
      (contoh:anda membeli 1000 maka:1000 X10000 = 10.000.000)
  5. SUPER ROYAL FLUSH x 30000 harga jackpot yang anda beli
      (contoh:anda membeli 1000 maka:1000 X30000 = 30.000.000)

Kondisi kartu

  1. full house adalah kondisi kartu dimana kartu anda dan kartu tengah dengan total 7 kartu bisa mendapatkan nilai 5 kartu dengan kombinasi 1 tris(three of kind) dan 1 pair, contoh 3 kartu 10 dan 2 kartu 5
  2. Four of kind adalah kondisi kartu dimana kartu anda dan kartu tengah dengan total 7 kartu bisa mendapatkan nilai 5 kartu dengan kombinasi 4 kartu yang sama jumlah dan 1 kartu apapun juga contoh anda mendapatkan 4 buah kartu angka 3 dan 1 kartu apapun.
  3. Staright flush adalah kondisi kartu dimana kartu anda dan kartu tengah dengan total 7 kartu bisa mendapatkan nilai 5 kartu dengan kombinasi seri / staright dengan kembang yang sama contoh : urutan kartu dari angka 5, 6, 7, 8 , 9 10 dengan kembang yg sama misalnya as hati
  4. Royal flush adalah kondisi kartu dimana kartu anda dan kartu tengah dengan total 7 kartu bisa mendapatkan nilai 5 kartu dengan kombinasi seri / staright dengan kembang yang sama tetapi kartu tersebut haruslah dimulai dari 10. contoh 10, Queen, Jack, King dan aces dengan kembang yang sama
  5. Super Royal flush adalah kondisi kartu dimana Kedua kartu anda digabung dengan 3 kartu pertama meja haruslah royal flush. contoh kartu anda 10,Queen kembang sama dan 3 kartu pertama meja adalah Jack, King dan aces dengan kembang yang sama

Demikian adalah penjelasan dari Multi Jackpot www.pokerbintang.xyz terima kasih dan selamat bermain salam hoki dari kami

Texas Poker Jackpot Winner

TOP SUPER ROYAL FLUSH
No.TanggalNamaPriceWin
116/07 03:32ANDICKSuper Royal flush3,000,000
216/07 03:24D1744Super Royal flush6,000,000
316/07 00:38BUBUNG87Super Royal flush1,500,000
415/07 15:47PERANG01Super Royal flush6,000,000
515/07 14:02AYLA67Super Royal flush15,000,000
TOP ROYAL FLUSH
No.TanggalNamaPriceWin
116/07 17:26BA5454KRoyal flush10,000,000
216/07 17:23BRQNX__Royal flush1,000,000
316/07 17:20W80WJZVQGWRoyal flush1,000,000
416/07 16:47MESDRoyal flush1,000,000
516/07 16:47STARKID7Royal flush10,000,000
TOP STRAIGHT FLUSH
No.TanggalNamaPriceWin
116/07 17:27D3398021Straight Flush1,200,000
216/07 17:27BTX182Straight Flush600,000
316/07 17:26D61BAE9FStraight Flush600,000
416/07 17:24SAZA17Straight Flush1,200,000
516/07 17:22IZEL9444L8Straight Flush1,200,000
LATEST JACKPOT
No.TanggalNamaPriceWin
116/07 17:27TOPO9Full House5,000
216/07 17:27P3TARUNG_AFull House2,000
316/07 17:27DWBTFF81Full House20,000
416/07 17:27IWAK420Full House10,000
516/07 17:27IYONPARAHFull House5,000
616/07 17:27CAWET44Full House20,000
716/07 17:27BUDARFull House5,000
816/07 17:27APL3S12Full House2,000
916/07 17:27DB793487Full House5,000
1016/07 17:27VIOLAISTIFull House5,000
1116/07 17:27TEMPIK01Full House2,000
1216/07 17:27DWBTECHO37Full House5,000
1316/07 17:27AEF031B6Full House5,000
1416/07 17:27DC4E7B64Four Of A Kind50,000
1516/07 17:27HOYAKU12Four Of A Kind25,000
1616/07 17:27JUTO45Full House5,000
1716/07 17:27MORIS161Four Of A Kind25,000
1816/07 17:27JACKASYANFull House10,000
1916/07 17:27ANGKUSALFour Of A Kind250,000
2016/07 17:27PUTOO14Full House2,000
2116/07 17:27SLOWS99Full House1,000
2216/07 17:27D3398021Straight Flush1,200,000
2316/07 17:27HAMSHA21Full House2,000
2416/07 17:27GODANGROHAFull House10,000
2516/07 17:27UNTUNGG666Full House2,000
2616/07 17:27W4HD4H_41Full House1,000
2716/07 17:27BERTO003Full House2,000
2816/07 17:27ASIANTOFull House1,000
2916/07 17:27COKADITFull House20,000
3016/07 17:27BOLTUS82Full House5,000
3116/07 17:27SINDI_93Full House5,000
3216/07 17:27FRANCE777Four Of A Kind125,000
3316/07 17:27SAHAT33333Full House5,000
3416/07 17:27FUTAWS666Full House10,000
3516/07 17:27UGAEKFull House10,000
3616/07 17:27S4YAM4D4Full House2,000
3716/07 17:27SAKAL99Full House2,000
3816/07 17:27BETOK_01Full House10,000
3916/07 17:27ZALFA2017Full House2,000
4016/07 17:27MAMBOE44Full House5,000
4116/07 17:27AMERIGOFull House2,000
4216/07 17:27DJDRE88Full House10,000
4316/07 17:27KMR08Full House5,000
4416/07 17:27BTX182Straight Flush600,000
4516/07 17:27MORPLING99Full House2,000
4616/07 17:27AR1E88Four Of A Kind125,000
4716/07 17:27PELAKOOOORFull House2,000
4816/07 17:27LIVE44Full House5,000
4916/07 17:27SELVIANEFull House2,000
5016/07 17:27KUTELLA9Full House10,000

Domino Multi Jackpot System

Ikutilah global jackpot yang tersedia di system kami, dengan system jackpot terbaru dan pertama di indonesia, anda dapat membeli jackpot dengan harga 100 rupiah saja dan menangkan hadiahnya hingga puluhan juta rupiah.

Jackpot bukanlah suatu keharusan untuk dibeli, namun kami memberikan suatu fitur tambahan untuk member tercinta dari www.pokerbintang.xyz.

Terdapat tiga pilihan harga jackpot yang bisa anda beli yaitu :100,500 dan 1000 rupiah.

Hadiah dari Multi jackpot system www.pokerbintang.xyz

  1. Murni Kecil x 50 harga jackpot yang anda beli.
      (contoh:anda membeli 1000 maka:1000 X 50 = 50.000)
  2. Murni Besar x 50 harga jackpot yang anda beli
      (contoh:anda membeli 1000 maka:1000 X 50 = 50.000)
  3. BALAK x 100 harga jackpot yang anda beli
      (contoh:anda membeli 1000 maka:1000 X 100 = 100.000)
  4. ENAM DEWA x 6666 harga jackpot yang anda beli
      (contoh:anda membeli 1000 maka:1000 X 6666 = 6.666.000)

Demikian adalah penjelasan dari Multi Jackpot www.pokerbintang.xyz terima kasih dan selamat bermain salam hoki dari kami

Domino Jackpot Winner

TOP ENAM DEWA
No.TanggalNamaPriceWin
116/07 17:01BOLOUSmurni enam6,666,000
216/07 15:25LOEKMAN91murni enam6,666,000
316/07 14:51DEKONCELmurni enam666,600
416/07 14:28BOLOUSmurni enam3,333,000
516/07 11:53AMPEANmurni enam6,666,000
TOP BALAK
No.TanggalNamaPriceWin
116/07 17:23BOSS_BOCAHbalak100,000
216/07 17:20JAKII99balak100,000
316/07 17:19APRIZAL21balak10,000
416/07 17:19V298balak50,000
516/07 17:19JHONONAR99balak100,000
LATEST JACKPOT
No.TanggalNamaPriceWin
116/07 17:27COLIKUmurni kecil50,000
216/07 17:27SONTOL9975murni kecil5,000
316/07 17:27WIN51617lucky992,500
416/07 17:27EMANEKOKmurni besar50,000
516/07 17:27KUPATAHU93murni besar50,000
616/07 17:26XOAT04K8I4murni besar25,000
716/07 17:26ICHAL46murni kecil50,000
816/07 17:26YKB882171murni besar25,000
916/07 17:26MHI8187murni besar50,000
1016/07 17:25VHY86murni besar50,000
1116/07 17:25JACE888murni besar50,000
1216/07 17:25PAPAS212lucky9925,000
1316/07 17:24OKILAmurni besar50,000
1416/07 17:24DA5D7872murni kecil5,000
1516/07 17:24TEBOUCINK2murni kecil50,000
1616/07 17:24KARNILA99murni besar25,000
1716/07 17:23BOSS_BOCAHbalak100,000
1816/07 17:23CUPLUY01murni besar50,000
1916/07 17:23RAESIAF09murni kecil50,000
2016/07 17:22WEDOS358murni besar50,000
2116/07 17:22LEKRUNmurni besar50,000
2216/07 17:22NURIYAH01murni kecil50,000
2316/07 17:22HENRI222murni besar50,000
2416/07 17:22BP888002murni besar50,000
2516/07 17:21MANTO34murni kecil5,000
2616/07 17:21HSJDPKL01Omurni besar50,000
2716/07 17:21PIDINWEWmurni kecil50,000
2816/07 17:21KAJINE16murni kecil50,000
2916/07 17:20A08OMS12209murni kecil50,000
3016/07 17:20JAKII99balak100,000
3116/07 17:20ZASSYIFA14murni besar50,000
3216/07 17:20MOLPEACEmurni besar5,000
3316/07 17:20P4SAmurni kecil5,000
3416/07 17:19APRIZAL21balak10,000
3516/07 17:19V298balak50,000
3616/07 17:19E91DB372murni kecil50,000
3716/07 17:19DENADA21murni besar25,000
3816/07 17:19BEDOT666murni kecil25,000
3916/07 17:19JHONONAR99balak100,000
4016/07 17:18DUKUPALEM2murni kecil25,000
4116/07 17:18MBOTED77murni besar25,000
4216/07 17:18HALINAUmurni besar25,000
4316/07 17:18UYU6NGmurni besar25,000
4416/07 17:18C84IOREN07201murni besar50,000
4516/07 17:18BOGIT1234balak50,000
4616/07 17:17DFC19650murni kecil5,000
4716/07 17:17BMW97murni kecil5,000
4816/07 17:16GUJITXXXmurni kecil25,000
4916/07 17:16CLVFQPJA4Ymurni besar25,000
5016/07 17:15FIRMANALAlucky9925,000

Ceme Multi Jackpot System

Jackpot dilihat dari gabungan kartu pemain dengan kartu bandar. Bandar harus membeli jackpot sebanyak jumlah player yang sedang duduk. Sebagai contoh bila terdapat 3 pemain duduk bermain, dan bandar memutuskan untuk membeli jackpot Rp 1.000, maka pada periode tersebut bandar akan membeli jackpot sebanyak 3xRp1.000 = Rp3.000.

Jackpot bukanlah suatu keharusan untuk dibeli, namun kami memberikan suatu fitur tambahan untuk member tercinta dari www.pokerbintang.xyz.

Terdapat tiga pilihan harga jackpot yang bisa anda beli yaitu :100,500 dan 1000 rupiah.

Hadiah dari Multi jackpot system www.pokerbintang.xyz

  1. Murni Kecil x 50 harga jackpot yang anda beli.
      (contoh:anda membeli 1000 maka:1000 X 50 = 50.000)
  2. Murni Besar x 50 harga jackpot yang anda beli
      (contoh:anda membeli 1000 maka:1000 X 50 = 50.000)
  3. BALAK x 200 harga jackpot yang anda beli
      (contoh:anda membeli 1000 maka:1000 X 200 = 200.000)
  4. ENAM DEWA x 6666 harga jackpot yang anda beli
      (contoh:anda membeli 1000 maka:1000 X 6666 = 6.666.000)

Demikian adalah penjelasan dari Multi Jackpot www.pokerbintang.xyz terima kasih dan selamat bermain salam hoki dari kami

Ceme Jackpot Winner

TOP ENAM DEWA
No.TanggalNamaPriceWin
116/07 17:17DAGIL007murni enam6,666,000
216/07 16:59BNGJENGGOTmurni enam6,666,000
316/07 16:50KEWEL12345murni enam6,666,000
416/07 16:50AGENT88570murni enam6,666,000
516/07 16:48DMS2312murni enam3,333,000
TOP BALAK
No.TanggalNamaPriceWin
116/07 17:27YUSTO888balak100,000
216/07 17:27BHULETEAbalak100,000
316/07 17:26BANEZAbalak100,000
416/07 17:26IMS303balak20,000
516/07 17:26ARCHER50balak200,000
LATEST JACKPOT
No.TanggalNamaPriceWin
116/07 17:27KLENYEUR07murni besar25,000
216/07 17:27MAMAT901murni besar50,000
316/07 17:27NIJAM007murni kecil25,000
416/07 17:27B48BPA234909murni besar5,000
516/07 17:27REAFEN99murni besar50,000
616/07 17:27PAI99murni besar50,000
716/07 17:27M1REBU5murni besar50,000
816/07 17:27YUSTO888balak100,000
916/07 17:27BHULETEAbalak100,000
1016/07 17:27BETON191murni besar50,000
1116/07 17:27BULKIS45murni kecil25,000
1216/07 17:27DINO1509murni kecil5,000
1316/07 17:27NDDR59966Xmurni kecil5,000
1416/07 17:27MPK88murni kecil50,000
1516/07 17:27MEXICO1299murni kecil25,000
1616/07 17:27PASARBK3murni kecil25,000
1716/07 17:27YUIZA99murni besar50,000
1816/07 17:27KLENYEUR07murni kecil25,000
1916/07 17:27SEYNAA03murni kecil50,000
2016/07 17:27AMELIASISmurni kecil50,000
2116/07 17:26SYANTIK08murni kecil50,000
2216/07 17:26B909Tmurni kecil25,000
2316/07 17:26BANEZAbalak100,000
2416/07 17:26IMS303balak20,000
2516/07 17:26HERDIBUDIAmurni kecil5,000
2616/07 17:26MEG86murni besar50,000
2716/07 17:26I5TWUBUCPCmurni kecil50,000
2816/07 17:26T212DODImurni kecil50,000
2916/07 17:26GUSTH3Ymurni besar50,000
3016/07 17:26UB3Cmurni besar5,000
3116/07 17:26FEBBY1609murni besar50,000
3216/07 17:26ARCHER50balak200,000
3316/07 17:26YE5BOSmurni besar25,000
3416/07 17:26OFHONINSPTmurni besar50,000
3516/07 17:26WISRABA1murni kecil50,000
3616/07 17:26IORAJAmurni kecil50,000
3716/07 17:25KLENYEUR07murni kecil25,000
3816/07 17:25SEYNAA03murni kecil50,000
3916/07 17:25GIGOLOQIUmurni kecil50,000
4016/07 17:25ARCHER50murni kecil50,000
4116/07 17:25KULSUM12murni besar50,000
4216/07 17:25REFICO5murni besar50,000
4316/07 17:25PAPACRINGEmurni besar50,000
4416/07 17:25LENDING01murni kecil50,000
4516/07 17:25DONDO999murni kecil25,000
4616/07 17:25PEPENGG81murni besar5,000
4716/07 17:24JEMUJAE12murni besar50,000
4816/07 17:24MITESmurni besar50,000
4916/07 17:24BANGDULIbalak200,000
5016/07 17:24HSGSGDmurni besar50,000